| time (UTC) | temp F | wind direction | speed MPH | gust MPH | rain 1hr in | rain 24hr in | rain mn in | humidity % | barometer mb |
| 20260502164235 | 56 | 22 | 3.0 | 5.0 | 0.00 | 0.00 | 0.00 | 44 | 1022.0 |
| 20260502163735 | 57 | 307 | 1.0 | 6.0 | 0.00 | 0.00 | 0.00 | 45 | 1022.0 |
| 20260502163236 | 57 | 33 | 2.0 | 6.0 | 0.00 | 0.00 | 0.00 | 44 | 1022.0 |
| 20260502162735 | 56 | 332 | 2.0 | 4.0 | 0.00 | 0.00 | 0.00 | 49 | 1022.0 |
| 20260502162235 | 57 | 14 | 4.0 | 6.0 | 0.00 | 0.00 | 0.00 | 48 | 1022.0 |
| 20260502161735 | 55 | 40 | 4.0 | 4.0 | 0.00 | 0.00 | 0.00 | 49 | 1022.0 |
| 20260502161235 | 56 | 307 | 4.0 | 5.0 | 0.00 | 0.00 | 0.00 | 47 | 1022.0 |
| 20260502160735 | 57 | 317 | 3.0 | 5.0 | 0.00 | 0.00 | 0.00 | 49 | 1022.0 |
| 20260502160236 | 57 | 37 | 2.0 | 6.0 | 0.00 | 0.00 | 0.00 | 48 | 1022.0 |
| 20260502152243 | 56 | 320 | 0.0 | 5.0 | 0.00 | 0.00 | 0.00 | 52 | 1022.0 |
| 20260502151735 | 57 | 39 | 2.0 | 5.0 | 0.00 | 0.00 | 0.00 | 53 | 1022.0 |
| 20260502151235 | 56 | 202 | 1.0 | 5.0 | 0.00 | 0.00 | 0.00 | 56 | 1022.0 |
| 20260502150736 | 56 | 267 | 2.0 | 6.0 | 0.00 | 0.00 | 0.00 | 55 | 1021.0 |
| 20260502150236 | 56 | 70 | 1.0 | 4.0 | 0.00 | 0.00 | 0.00 | 55 | 1021.0 |
| 20260502130735 | 51 | 47 | 3.0 | 4.0 | 0.00 | 0.00 | 0.00 | 75 | 1021.0 |
| 20260502130235 | 51 | 309 | 0.0 | 5.0 | 0.00 | 0.00 | 0.00 | 74 | 1021.0 |
| 20260502123736 | 49 | 325 | 2.0 | 3.0 | 0.00 | 0.00 | 0.00 | 78 | 1021.0 |
| 20260502123235 | 49 | 343 | 3.0 | 3.0 | 0.00 | 0.00 | 0.00 | 79 | 1021.0 |
| 20260502122735 | 48 | 343 | 0.0 | 3.0 | 0.00 | 0.00 | 0.00 | 80 | 1021.0 |
| 20260502122235 | 48 | 68 | 0.0 | 3.0 | 0.00 | 0.00 | 0.00 | 81 | 1020.0 |
| 20260502121735 | 48 | 48 | 3.0 | 5.0 | 0.00 | 0.00 | 0.00 | 82 | 1020.0 |
| 20260502121236 | 47 | 55 | 2.0 | 4.0 | 0.00 | 0.00 | 0.00 | 82 | 1020.0 |
| 20260502120735 | 47 | 37 | 0.0 | 3.0 | 0.00 | 0.00 | 0.00 | 83 | 1020.0 |
| 20260502120235 | 46 | 53 | 0.0 | 2.0 | 0.00 | 0.00 | 0.00 | 84 | 1020.0 |
| 20260502115735 | 46 | 342 | 0.0 | 3.0 | 0.00 | 0.00 | 0.00 | 84 | 1020.0 |
| 20260502115235 | 46 | 318 | 0.0 | 2.0 | 0.00 | 0.00 | 0.00 | 84 | 1020.0 |
| 20260502114735 | 46 | 241 | 0.0 | 2.0 | 0.00 | 0.00 | 0.00 | 84 | 1020.0 |
| 20260502114235 | 46 | 287 | 0.0 | 1.0 | 0.00 | 0.00 | 0.00 | 83 | 1020.0 |
| 20260502113736 | 46 | 328 | 0.0 | 1.0 | 0.00 | 0.00 | 0.00 | 83 | 1020.0 |
| 20260502113235 | 46 | 353 | 0.0 | 1.0 | 0.00 | 0.00 | 0.00 | 82 | 1020.0 |
| 20260502112736 | 46 | 22 | 0.0 | 2.0 | 0.00 | 0.00 | 0.00 | 83 | 1020.0 |
| 20260502112235 | 46 | 28 | 2.0 | 3.0 | 0.00 | 0.00 | 0.00 | 84 | 1019.0 |
| 20260502111735 | 45 | 46 | 0.0 | 1.0 | 0.00 | 0.00 | 0.00 | 84 | 1020.0 |
| 20260502111235 | 45 | 50 | 0.0 | 1.0 | 0.00 | 0.00 | 0.00 | 85 | 1020.0 |
| 20260502110736 | 45 | 89 | 0.0 | 0.0 | 0.00 | 0.00 | 0.00 | 85 | 1019.0 |
| 20260502110235 | 45 | 337 | 1.0 | 2.0 | 0.00 | 0.00 | 0.00 | 85 | 1019.0 |
| 20260502105736 | 45 | 309 | 0.0 | 0.0 | 0.00 | 0.00 | 0.00 | 83 | 1019.0 |
| 20260502105235 | 45 | 217 | 0.0 | 0.0 | 0.00 | 0.00 | 0.00 | 83 | 1019.0 |
| 20260502104736 | 46 | 228 | 0.0 | 0.0 | 0.00 | 0.00 | 0.00 | 82 | 1019.0 |
| 20260502104235 | 46 | 113 | 0.0 | 0.0 | 0.00 | 0.00 | 0.00 | 82 | 1019.0 |
| 20260502103735 | 46 | 173 | 0.0 | 1.0 | 0.00 | 0.00 | 0.00 | 82 | 1019.0 |
| 20260502102830 | 46 | 326 | 0.0 | 0.0 | 0.00 | 0.00 | 0.00 | 81 | 1019.0 |
| 20260502102235 | 46 | 117 | 0.0 | 0.0 | 0.00 | 0.00 | 0.00 | 79 | 1019.0 |
| 20260502101735 | 47 | 6 | 0.0 | 0.0 | 0.00 | 0.00 | 0.00 | 79 | 1019.0 |
| 20260502101236 | 47 | 50 | 0.0 | 1.0 | 0.00 | 0.00 | 0.00 | 80 | 1019.0 |
| 20260502100735 | 47 | 297 | 0.0 | 0.0 | 0.00 | 0.00 | 0.00 | 78 | 1019.0 |
| 20260502100235 | 47 | 269 | 0.0 | 0.0 | 0.00 | 0.00 | 0.00 | 76 | 1019.0 |
| 20260502091236 | 50 | 113 | 0.0 | 0.0 | 0.00 | 0.00 | 0.00 | 68 | 1019.0 |
| 20260502090735 | 50 | 230 | 0.0 | 0.0 | 0.00 | 0.00 | 0.00 | 68 | 1019.0 |
| 20260502090236 | 50 | 12 | 0.0 | 2.0 | 0.00 | 0.00 | 0.00 | 66 | 1019.0 |
| 20260502071236 | 53 | 62 | 2.0 | 5.0 | 0.00 | 0.00 | 0.00 | 58 | 1019.0 |
| 20260502070735 | 53 | 61 | 2.0 | 6.0 | 0.00 | 0.00 | 0.00 | 58 | 1019.0 |
| 20260502070235 | 53 | 21 | 3.0 | 4.0 | 0.00 | 0.00 | 0.00 | 58 | 1019.0 |
| 20260502065735 | 53 | 34 | 3.0 | 5.0 | 0.00 | 0.00 | 0.00 | 58 | 1019.0 |
| 20260502065235 | 53 | 142 | 1.0 | 5.0 | 0.00 | 0.00 | 0.00 | 59 | 1019.0 |
| 20260502064735 | 52 | 39 | 4.0 | 5.0 | 0.00 | 0.00 | 0.00 | 59 | 1019.0 |
| 20260502064236 | 52 | 60 | 3.0 | 4.0 | 0.00 | 0.00 | 0.00 | 61 | 1019.0 |
| 20260502063735 | 52 | 342 | 3.0 | 4.0 | 0.00 | 0.00 | 0.00 | 63 | 1019.0 |
| 20260502063235 | 53 | 19 | 2.0 | 4.0 | 0.00 | 0.00 | 0.00 | 59 | 1019.0 |
| 20260502062736 | 53 | 41 | 1.0 | 3.0 | 0.00 | 0.00 | 0.00 | 59 | 1019.0 |
| 20260502062236 | 53 | 65 | 1.0 | 3.0 | 0.00 | 0.00 | 0.00 | 59 | 1019.0 |
| 20260502061735 | 53 | 2 | 2.0 | 5.0 | 0.00 | 0.00 | 0.00 | 59 | 1019.0 |
| 20260502061235 | 52 | 11 | 3.0 | 3.0 | 0.00 | 0.00 | 0.00 | 61 | 1019.0 |
| 20260502060324 | 52 | 351 | 1.0 | 4.0 | 0.00 | 0.00 | 0.00 | 60 | 1019.0 |
| 20260502055736 | 52 | 37 | 0.0 | 3.0 | 0.00 | 0.00 | 0.00 | 61 | 1018.0 |
| 20260502055235 | 52 | 44 | 0.0 | 0.0 | 0.00 | 0.00 | 0.00 | 61 | 1019.0 |
| 20260502054735 | 52 | 151 | 0.0 | 2.0 | 0.00 | 0.00 | 0.00 | 59 | 1019.0 |
| 20260502054237 | 52 | 122 | 1.0 | 2.0 | 0.00 | 0.00 | 0.00 | 60 | 1019.0 |
| 20260502053736 | 51 | 69 | 0.0 | 2.0 | 0.00 | 0.00 | 0.00 | 62 | 1018.0 |
| 20260502053236 | 50 | 19 | 2.0 | 3.0 | 0.00 | 0.00 | 0.00 | 64 | 1019.0 |
| 20260502052735 | 49 | 56 | 1.0 | 2.0 | 0.00 | 0.00 | 0.00 | 70 | 1019.0 |
| 20260502052235 | 50 | 32 | 0.0 | 0.0 | 0.00 | 0.00 | 0.00 | 68 | 1019.0 |
| 20260502051736 | 50 | 37 | 0.0 | 0.0 | 0.00 | 0.00 | 0.00 | 69 | 1019.0 |
| 20260502051236 | 50 | 224 | 0.0 | 0.0 | 0.00 | 0.00 | 0.00 | 68 | 1019.0 |
| 20260502050735 | 50 | 224 | 0.0 | 0.0 | 0.00 | 0.00 | 0.00 | 67 | 1019.0 |
| 20260502050235 | 51 | 224 | 0.0 | 0.0 | 0.00 | 0.00 | 0.00 | 65 | 1019.0 |
| 20260502045735 | 51 | 224 | 0.0 | 0.0 | 0.00 | 0.00 | 0.00 | 65 | 1019.0 |
| 20260502045235 | 51 | 124 | 0.0 | 1.0 | 0.00 | 0.00 | 0.00 | 63 | 1019.0 |
| 20260502044735 | 51 | 113 | 0.0 | 1.0 | 0.00 | 0.00 | 0.00 | 63 | 1019.0 |
| 20260502044235 | 51 | 117 | 0.0 | 0.0 | 0.00 | 0.00 | 0.00 | 63 | 1019.0 |
| 20260502043736 | 52 | 110 | 0.0 | 0.0 | 0.00 | 0.00 | 0.00 | 64 | 1019.0 |
| 20260502043235 | 52 | 154 | 0.0 | 0.0 | 0.00 | 0.00 | 0.00 | 64 | 1019.0 |
| 20260502042735 | 52 | 154 | 0.0 | 0.0 | 0.00 | 0.00 | 0.00 | 62 | 1019.0 |
| 20260502042235 | 52 | 154 | 0.0 | 0.0 | 0.00 | 0.00 | 0.00 | 61 | 1019.0 |
| 20260502041735 | 52 | 97 | 0.0 | 1.0 | 0.00 | 0.00 | 0.00 | 61 | 1019.0 |
| 20260502041235 | 53 | 242 | 0.0 | 1.0 | 0.00 | 0.00 | 0.00 | 62 | 1019.0 |
| 20260502040735 | 53 | 129 | 0.0 | 1.0 | 0.00 | 0.00 | 0.00 | 58 | 1019.0 |
| 20260502040235 | 53 | 115 | 0.0 | 2.0 | 0.00 | 0.00 | 0.00 | 57 | 1019.0 |
| 20260502035735 | 53 | 305 | 0.0 | 1.0 | 0.00 | 0.00 | 0.00 | 59 | 1019.0 |
| 20260502035235 | 53 | 132 | 0.0 | 1.0 | 0.00 | 0.00 | 0.00 | 53 | 1019.0 |
| 20260502034735 | 54 | 224 | 0.0 | 1.0 | 0.00 | 0.00 | 0.00 | 57 | 1019.0 |
| 20260502034235 | 54 | 148 | 0.0 | 1.0 | 0.00 | 0.00 | 0.00 | 54 | 1019.0 |
| 20260502033735 | 54 | 315 | 0.0 | 1.0 | 0.00 | 0.00 | 0.00 | 58 | 1019.0 |
| 20260502033235 | 53 | 157 | 0.0 | 2.0 | 0.00 | 0.00 | 0.00 | 56 | 1019.0 |
| 20260502032735 | 54 | 44 | 0.0 | 0.0 | 0.00 | 0.00 | 0.00 | 56 | 1019.0 |
| 20260502032235 | 54 | 224 | 0.0 | 0.0 | 0.00 | 0.00 | 0.00 | 54 | 1019.0 |
| 20260502031737 | 54 | 89 | 0.0 | 2.0 | 0.00 | 0.00 | 0.00 | 56 | 1019.0 |
| 20260502031235 | 53 | 14 | 1.0 | 2.0 | 0.00 | 0.00 | 0.00 | 56 | 1019.0 |
| 20260502030737 | 53 | 142 | 0.0 | 0.0 | 0.00 | 0.00 | 0.00 | 56 | 1019.0 |
| 20260502030235 | 53 | 147 | 0.0 | 2.0 | 0.00 | 0.00 | 0.00 | 57 | 1020.0 |
| 20260502025735 | 53 | 205 | 0.0 | 0.0 | 0.00 | 0.00 | 0.00 | 58 | 1019.0 |
| 20260502025236 | 53 | 135 | 0.0 | 0.0 | 0.00 | 0.00 | 0.00 | 54 | 1019.0 |
| 20260502024735 | 54 | 135 | 0.0 | 0.0 | 0.00 | 0.00 | 0.00 | 54 | 1019.0 |
| 20260502024235 | 54 | 230 | 0.0 | 0.0 | 0.00 | 0.00 | 0.00 | 55 | 1019.0 |
| 20260502023735 | 54 | 230 | 0.0 | 0.0 | 0.00 | 0.00 | 0.00 | 54 | 1019.0 |
| 20260502023236 | 54 | 224 | 0.0 | 0.0 | 0.00 | 0.00 | 0.00 | 50 | 1019.0 |
| 20260502022736 | 54 | 135 | 0.0 | 0.0 | 0.00 | 0.00 | 0.00 | 50 | 1019.0 |
| 20260502022236 | 54 | 143 | 0.0 | 1.0 | 0.00 | 0.00 | 0.00 | 50 | 1019.0 |
| 20260502021735 | 54 | 129 | 0.0 | 1.0 | 0.00 | 0.00 | 0.00 | 49 | 1019.0 |
| 20260502021235 | 53 | 137 | 1.0 | 1.0 | 0.00 | 0.00 | 0.00 | 50 | 1019.0 |
| 20260502020735 | 53 | 129 | 0.0 | 0.0 | 0.00 | 0.00 | 0.00 | 50 | 1019.0 |
| 20260502020235 | 53 | 135 | 0.0 | 1.0 | 0.00 | 0.00 | 0.00 | 50 | 1019.0 |
| 20260502015735 | 53 | 135 | 0.0 | 1.0 | 0.00 | 0.00 | 0.00 | 50 | 1019.0 |
| 20260502015236 | 54 | 157 | 0.0 | 0.0 | 0.00 | 0.00 | 0.00 | 49 | 1018.0 |
| 20260502014736 | 54 | 154 | 0.0 | 0.0 | 0.00 | 0.00 | 0.00 | 47 | 1018.0 |
| 20260502014235 | 54 | 224 | 0.0 | 0.0 | 0.00 | 0.00 | 0.00 | 46 | 1018.0 |
| 20260502013735 | 55 | 142 | 0.0 | 0.0 | 0.00 | 0.00 | 0.00 | 46 | 1018.0 |
| 20260502013235 | 55 | 135 | 0.0 | 0.0 | 0.00 | 0.00 | 0.00 | 45 | 1018.0 |
| 20260502012735 | 55 | 149 | 1.0 | 1.0 | 0.00 | 0.00 | 0.00 | 46 | 1018.0 |
| 20260502012235 | 56 | 107 | 2.0 | 2.0 | 0.00 | 0.00 | 0.00 | 46 | 1018.0 |
| 20260502011736 | 56 | 135 | 0.0 | 1.0 | 0.00 | 0.00 | 0.00 | 46 | 1018.0 |
| 20260502011235 | 56 | 129 | 0.0 | 0.0 | 0.00 | 0.00 | 0.00 | 43 | 1018.0 |
| 20260502010735 | 57 | 195 | 0.0 | 0.0 | 0.00 | 0.00 | 0.00 | 42 | 1018.0 |
| 20260502010235 | 57 | 188 | 0.0 | 0.0 | 0.00 | 0.00 | 0.00 | 41 | 1018.0 |
| 20260502005736 | 58 | 192 | 0.0 | 0.0 | 0.00 | 0.00 | 0.00 | 40 | 1018.0 |
| 20260502005236 | 58 | 157 | 0.0 | 0.0 | 0.00 | 0.00 | 0.00 | 38 | 1018.0 |
| 20260502004735 | 58 | 130 | 0.0 | 0.0 | 0.00 | 0.00 | 0.00 | 37 | 1018.0 |
| 20260502004235 | 59 | 333 | 0.0 | 1.0 | 0.00 | 0.00 | 0.00 | 37 | 1018.0 |
| 20260502003735 | 59 | 315 | 0.0 | 1.0 | 0.00 | 0.00 | 0.00 | 36 | 1018.0 |
| 20260502003235 | 59 | 337 | 0.0 | 1.0 | 0.00 | 0.00 | 0.00 | 37 | 1018.0 |
| 20260502002735 | 60 | 276 | 0.0 | 2.0 | 0.00 | 0.00 | 0.00 | 36 | 1018.0 |
| 20260502002235 | 60 | 296 | 2.0 | 3.0 | 0.00 | 0.00 | 0.00 | 34 | 1018.0 |
| 20260502001735 | 60 | 283 | 0.0 | 2.0 | 0.00 | 0.00 | 0.00 | 35 | 1018.0 |
| 20260502001235 | 61 | 320 | 0.0 | 2.0 | 0.00 | 0.00 | 0.00 | 34 | 1018.0 |
| 20260502000735 | 61 | 261 | 0.0 | 3.0 | 0.00 | 0.00 | 0.00 | 32 | 1018.0 |
| 20260502000236 | 61 | 247 | 0.0 | 5.0 | 0.00 | 0.00 | 0.00 | 32 | 1017.0 |
| 20260501235735 | 61 | 269 | 2.0 | 4.0 | 0.00 | 0.00 | 0.00 | 31 | 1018.0 |
| 20260501235235 | 62 | 234 | 2.0 | 5.0 | 0.00 | 0.00 | 0.00 | 31 | 1017.0 |
| 20260501234736 | 62 | 229 | 3.0 | 5.0 | 0.00 | 0.00 | 0.00 | 31 | 1018.0 |
| 20260501234235 | 62 | 273 | 2.0 | 4.0 | 0.00 | 0.00 | 0.00 | 33 | 1018.0 |
| 20260501233735 | 62 | 252 | 4.0 | 6.0 | 0.00 | 0.00 | 0.00 | 32 | 1018.0 |
| 20260501233236 | 62 | 254 | 2.0 | 4.0 | 0.00 | 0.00 | 0.00 | 33 | 1017.0 |
| 20260501232735 | 62 | 337 | 3.0 | 4.0 | 0.00 | 0.00 | 0.00 | 31 | 1017.0 |
| 20260501232235 | 62 | 320 | 2.0 | 5.0 | 0.00 | 0.00 | 0.00 | 34 | 1017.0 |
| 20260501231735 | 62 | 310 | 2.0 | 3.0 | 0.00 | 0.00 | 0.00 | 36 | 1017.0 |
| 20260501231235 | 62 | 170 | 3.0 | 4.0 | 0.00 | 0.00 | 0.00 | 34 | 1017.0 |
| 20260501230735 | 63 | 328 | 3.0 | 6.0 | 0.00 | 0.00 | 0.00 | 31 | 1018.0 |
| 20260501230235 | 63 | 269 | 0.0 | 5.0 | 0.00 | 0.00 | 0.00 | 32 | 1017.0 |
| 20260501225735 | 63 | 262 | 3.0 | 5.0 | 0.00 | 0.00 | 0.00 | 29 | 1017.0 |
| 20260501225236 | 62 | 269 | 3.0 | 5.0 | 0.00 | 0.00 | 0.00 | 30 | 1018.0 |
| 20260501224735 | 62 | 294 | 2.0 | 3.0 | 0.00 | 0.00 | 0.00 | 32 | 1018.0 |
| 20260501224236 | 63 | 250 | 2.0 | 7.0 | 0.00 | 0.00 | 0.00 | 31 | 1018.0 |
| 20260501223735 | 63 | 339 | 2.0 | 4.0 | 0.00 | 0.00 | 0.00 | 31 | 1018.0 |
| 20260501223235 | 63 | 255 | 3.0 | 8.0 | 0.00 | 0.00 | 0.00 | 30 | 1018.0 |
| 20260501222736 | 63 | 280 | 4.0 | 8.0 | 0.00 | 0.00 | 0.00 | 30 | 1018.0 |
| 20260501222235 | 63 | 271 | 2.0 | 5.0 | 0.00 | 0.00 | 0.00 | 30 | 1018.0 |
| 20260501221736 | 62 | 249 | 2.0 | 5.0 | 0.00 | 0.00 | 0.00 | 30 | 1018.0 |
| 20260501221235 | 64 | 211 | 3.0 | 6.0 | 0.00 | 0.00 | 0.00 | 29 | 1018.0 |
| 20260501220736 | 63 | 282 | 3.0 | 6.0 | 0.00 | 0.00 | 0.00 | 29 | 1018.0 |
| 20260501220236 | 64 | 252 | 2.0 | 4.0 | 0.00 | 0.00 | 0.00 | 30 | 1018.0 |
| 20260501215735 | 64 | 253 | 6.0 | 7.0 | 0.00 | 0.00 | 0.00 | 30 | 1018.0 |
| 20260501215235 | 64 | 236 | 2.0 | 5.0 | 0.00 | 0.00 | 0.00 | 30 | 1018.0 |
| 20260501214735 | 63 | 225 | 1.0 | 5.0 | 0.00 | 0.00 | 0.00 | 30 | 1018.0 |
| 20260501214235 | 64 | 174 | 3.0 | 5.0 | 0.00 | 0.00 | 0.00 | 30 | 1018.0 |
| 20260501213735 | 64 | 297 | 3.0 | 6.0 | 0.00 | 0.00 | 0.00 | 31 | 1019.0 |
| 20260501213235 | 63 | 288 | 1.0 | 3.0 | 0.00 | 0.00 | 0.00 | 31 | 1019.0 |
| 20260501212736 | 64 | 139 | 1.0 | 5.0 | 0.00 | 0.00 | 0.00 | 29 | 1019.0 |
| 20260501212235 | 64 | 223 | 1.0 | 5.0 | 0.00 | 0.00 | 0.00 | 31 | 1019.0 |
| 20260501211735 | 64 | 340 | 2.0 | 4.0 | 0.00 | 0.00 | 0.00 | 32 | 1019.0 |
| 20260501211235 | 63 | 332 | 3.0 | 4.0 | 0.00 | 0.00 | 0.00 | 34 | 1019.0 |
| 20260501210735 | 62 | 113 | 0.0 | 5.0 | 0.00 | 0.00 | 0.00 | 31 | 1019.0 |
| 20260501210236 | 63 | 315 | 2.0 | 4.0 | 0.00 | 0.00 | 0.00 | 31 | 1019.0 |
| 20260501205735 | 63 | 286 | 3.0 | 5.0 | 0.00 | 0.00 | 0.00 | 29 | 1019.0 |
| 20260501205235 | 63 | 311 | 5.0 | 10.0 | 0.00 | 0.00 | 0.00 | 30 | 1019.0 |
| 20260501204735 | 63 | 302 | 5.0 | 7.0 | 0.00 | 0.00 | 0.00 | 29 | 1019.0 |
| 20260501204235 | 62 | 228 | 3.0 | 4.0 | 0.00 | 0.00 | 0.00 | 34 | 1019.0 |
| 20260501203735 | 61 | 312 | 4.0 | 6.0 | 0.00 | 0.00 | 0.00 | 31 | 1019.0 |
| 20260501203235 | 61 | 319 | 1.0 | 3.0 | 0.00 | 0.00 | 0.00 | 34 | 1020.0 |
| 20260501202735 | 61 | 212 | 1.0 | 2.0 | 0.00 | 0.00 | 0.00 | 32 | 1020.0 |
| 20260501202235 | 62 | 297 | 2.0 | 5.0 | 0.00 | 0.00 | 0.00 | 31 | 1020.0 |
| 20260501201735 | 61 | 302 | 4.0 | 7.0 | 0.00 | 0.00 | 0.00 | 33 | 1020.0 |
| 20260501201236 | 60 | 273 | 1.0 | 4.0 | 0.00 | 0.00 | 0.00 | 32 | 1020.0 |
| 20260501200735 | 60 | 265 | 3.0 | 4.0 | 0.00 | 0.00 | 0.00 | 33 | 1020.0 |
| 20260501200235 | 62 | 237 | 4.0 | 6.0 | 0.00 | 0.00 | 0.00 | 34 | 1020.0 |
| 20260501195735 | 62 | 355 | 1.0 | 4.0 | 0.00 | 0.00 | 0.00 | 35 | 1020.0 |
| 20260501195235 | 61 | 276 | 1.0 | 4.0 | 0.00 | 0.00 | 0.00 | 35 | 1020.0 |
| 20260501194735 | 60 | 6 | 2.0 | 5.0 | 0.00 | 0.00 | 0.00 | 37 | 1020.0 |
| 20260501194235 | 60 | 17 | 5.0 | 5.0 | 0.00 | 0.00 | 0.00 | 34 | 1020.0 |
| 20260501193735 | 60 | 83 | 3.0 | 5.0 | 0.00 | 0.00 | 0.00 | 36 | 1020.0 |
| 20260501193236 | 60 | 65 | 2.0 | 4.0 | 0.00 | 0.00 | 0.00 | 36 | 1020.0 |
| 20260501192735 | 60 | 260 | 3.0 | 4.0 | 0.00 | 0.00 | 0.00 | 36 | 1020.0 |
| 20260501192235 | 59 | 69 | 1.0 | 3.0 | 0.00 | 0.00 | 0.00 | 34 | 1020.0 |
| 20260501191736 | 59 | 212 | 0.0 | 2.0 | 0.00 | 0.00 | 0.00 | 34 | 1020.0 |
| 20260501191235 | 59 | 335 | 2.0 | 3.0 | 0.00 | 0.00 | 0.00 | 38 | 1020.0 |
| 20260501190735 | 59 | 269 | 4.0 | 4.0 | 0.00 | 0.00 | 0.00 | 36 | 1020.0 |
| 20260501190235 | 60 | 26 | 0.0 | 5.0 | 0.00 | 0.00 | 0.00 | 35 | 1020.0 |
| 20260501185735 | 60 | 263 | 2.0 | 4.0 | 0.00 | 0.00 | 0.00 | 33 | 1020.0 |
| 20260501185235 | 60 | 82 | 1.0 | 6.0 | 0.00 | 0.00 | 0.00 | 35 | 1020.0 |
| 20260501184740 | 60 | 347 | 4.0 | 5.0 | 0.00 | 0.00 | 0.00 | 36 | 1021.0 |
| 20260501184235 | 59 | 292 | 0.0 | 5.0 | 0.00 | 0.00 | 0.00 | 36 | 1020.0 |
| 20260501183735 | 58 | 309 | 2.0 | 5.0 | 0.00 | 0.00 | 0.00 | 36 | 1021.0 |
| 20260501183235 | 59 | 254 | 2.0 | 3.0 | 0.00 | 0.00 | 0.00 | 35 | 1021.0 |
| 20260501182736 | 60 | 66 | 7.0 | 8.0 | 0.00 | 0.00 | 0.00 | 35 | 1021.0 |
| 20260501182235 | 59 | 284 | 4.0 | 4.0 | 0.00 | 0.00 | 0.00 | 36 | 1021.0 |
| 20260501181740 | 59 | 286 | 3.0 | 4.0 | 0.00 | 0.00 | 0.00 | 36 | 1020.0 |
| 20260501181235 | 59 | 265 | 3.0 | 5.0 | 0.00 | 0.00 | 0.00 | 37 | 1021.0 |
| 20260501180735 | 59 | 344 | 3.0 | 9.0 | 0.00 | 0.00 | 0.00 | 34 | 1021.0 |
| 20260501180239 | 59 | 313 | 3.0 | 6.0 | 0.00 | 0.00 | 0.00 | 36 | 1021.0 |
| 20260501175736 | 59 | 311 | 2.0 | 7.0 | 0.00 | 0.00 | 0.00 | 35 | 1021.0 |
| 20260501175236 | 59 | 308 | 3.0 | 4.0 | 0.00 | 0.00 | 0.00 | 36 | 1021.0 |
| 20260501174735 | 59 | 1 | 5.0 | 6.0 | 0.00 | 0.00 | 0.00 | 36 | 1021.0 |
| 20260501174236 | 58 | 355 | 3.0 | 5.0 | 0.00 | 0.00 | 0.00 | 36 | 1021.0 |
| 20260501173736 | 58 | 331 | 5.0 | 6.0 | 0.00 | 0.00 | 0.00 | 36 | 1021.0 |
| 20260501173235 | 58 | 345 | 4.0 | 7.0 | 0.00 | 0.00 | 0.00 | 36 | 1021.0 |
| 20260501172735 | 58 | 288 | 4.0 | 4.0 | 0.00 | 0.00 | 0.00 | 37 | 1021.0 |
| 20260501172235 | 57 | 297 | 3.0 | 4.0 | 0.00 | 0.00 | 0.00 | 37 | 1021.0 |
| 20260501171735 | 57 | 330 | 1.0 | 4.0 | 0.00 | 0.00 | 0.00 | 40 | 1021.0 |
| 20260501171236 | 57 | 290 | 0.0 | 4.0 | 0.00 | 0.00 | 0.00 | 36 | 1021.0 |
| 20260501170736 | 58 | 4 | 0.0 | 5.0 | 0.00 | 0.00 | 0.00 | 39 | 1021.0 |
| 20260501170235 | 57 | 334 | 3.0 | 6.0 | 0.00 | 0.00 | 0.00 | 40 | 1021.0 |
| 20260501165735 | 57 | 316 | 3.0 | 6.0 | 0.00 | 0.00 | 0.00 | 39 | 1021.0 |
| 20260501165235 | 57 | 0 | 4.0 | 4.0 | 0.00 | 0.00 | 0.00 | 42 | 1021.0 |
| 20260501164737 | 57 | 240 | 1.0 | 4.0 | 0.00 | 0.00 | 0.00 | 40 | 1021.0 |